Wind_Speed
30 30 30 30 29 29 30 31 31 32 34 36 37 39 40 41 41 42 42 43 42 42 40 39 39 39 43 47 50 51 52 52 52 50 49 47 46 43 42 42 43 43 43 43 42 41 40 40 41 42 41 40 38 35 33 31 29 27 26 20 16 15 14 15 14 8 10 13 14 13 14 15 13 12 9 6 4 4 6 9 10 8 10 14 17 20 23 26
31 31 31 31 31 30 30 31 32 32 33 35 37 39 41 42 43 44 44 44 45 44 43 42 41 41 43 46 50 52 53 53 53 51 51 49 47 45 43 43 43 43 44 43 43 42 42 42 43 43 43 42 39 37 35 33 31 28 25 20 16 16 16 19 19 14 16 17 16 15 14 15 13 10 8 4 4 6 7 9 8 6 9 14 17 20 22 25
31 32 32 32 32 32 32 31 32 33 34 35 37 39 41 43 44 45 46 46 47 46 46 45 44 44 44 46 50 53 54 54 54 53 53 51 48 46 45 45 44 44 44 44 45 45 44 45 45 45 44 43 41 39 37 35 33 30 26 21 19 19 18 21 23 21 21 19 17 16 15 13 10 9 7 3 3 4 6 7 4 4 8 13 17 19 22 24
30 31 32 33 33 33 33 33 32 33 35 36 37 39 41 43 45 47 48 48 49 49 49 48 47 46 46 47 50 53 55 55 55 55 54 52 50 49 48 47 46 45 46 46 47 46 46 46 46 46 45 44 43 40 38 35 34 32 28 23 21 22 21 21 23 22 22 21 17 16 16 13 11 9 7 5 4 2 4 5 3 4 9 12 16 19 21 23
29 30 30 32 34 35 34 34 34 34 35 37 39 40 41 43 46 47 49 50 50 51 51 51 50 49 48 48 50 53 55 56 58 57 55 54 52 51 50 49 48 47 47 47 48 47 46 46 46 47 46 45 44 42 38 35 35 34 29 26 23 23 23 21 22 23 24 23 18 14 15 15 12 9 5 6 7 5 5 6 5 7 10 12 16 18 20 22
29 29 30 31 33 35 36 36 35 35 36 38 40 41 42 43 45 48 50 51 52 53 53 53 53 52 51 50 51 53 55 58 60 58 56 56 54 52 52 51 50 49 49 49 49 48 47 46 47 46 47 46 45 43 37 33 36 36 32 30 26 24 25 23 22 22 25 27 21 16 14 15 14 9 6 7 8 6 6 7 6 8 10 13 16 17 19 21
29 29 29 31 32 33 36 37 37 37 37 38 40 41 43 44 45 48 50 52 53 54 55 55 55 54 53 53 52 53 55 59 62 59 57 57 55 54 53 53 52 51 50 50 50 49 48 47 47 47 48 47 46 45 38 33 36 38 35 32 29 27 27 25 23 21 23 27 26 20 14 14 15 12 10 9 8 6 6 6 7 9 13 16 17 16 18 21
30 30 30 30 31 32 34 37 39 39 38 38 40 42 44 45 46 48 50 53 54 56 57 57 57 57 56 55 55 55 55 60 63 62 60 59 57 56 55 54 53 52 52 51 51 50 49 49 48 48 48 48 47 47 43 36 36 39 38 34 31 29 27 24 24 23 23 25 27 24 17 14 14 13 13 11 7 6 5 7 10 13 15 16 16 15 18 20
31 31 31 30 31 32 33 35 38 40 41 40 40 42 44 46 47 49 50 53 55 57 58 59 59 59 59 58 57 56 57 62 65 63 62 61 59 58 57 56 55 54 53 52 52 51 51 50 50 49 48 49 49 49 50 44 38 40 40 36 33 29 26 25 25 25 24 24 25 25 21 18 16 15 15 12 8 7 8 10 13 14 15 15 14 15 17 18
33 32 32 32 31 32 33 34 37 39 42 42 41 41 44 47 48 50 51 53 55 58 59 60 61 61 61 61 59 59 61 65 65 63 63 63 61 60 59 58 57 56 55 54 54 53 53 52 50 50 49 50 52 52 54 51 44 43 41 37 33 29 27 28 28 27 26 26 25 25 23 19 16 17 16 13 12 13 12 12 13 14 14 13 12 13 15 16
35 35 34 33 33 33 33 34 36 38 41 44 44 43 43 46 49 51 53 54 55 58 60 61 62 63 63 63 62 62 65 66 65 64 65 66 64 63 62 60 59 58 57 56 55 55 54 53 52 52 51 52 55 56 56 55 50 48 44 38 33 28 28 31 31 31 29 27 28 28 25 20 16 15 14 13 13 15 15 13 13 14 14 12 12 13 15 15
37 37 37 36 35 35 34 34 35 37 40 43 46 46 45 45 49 52 54 56 57 58 60 62 64 64 65 65 64 66 67 67 66 64 66 68 67 65 64 63 61 60 59 58 57 56 55 54 54 54 53 54 57 56 54 54 53 51 46 40 35 29 28 31 32 33 31 28 30 29 26 24 21 17 15 14 14 14 15 14 15 14 14 13 14 16 16 14
39 38 38 39 38 37 36 35 35 36 39 42 45 47 47 46 47 51 54 56 58 59 60 62 65 66 67 67 67 69 69 69 68 65 67 69 68 67 66 65 63 62 61 60 59 58 56 56 56 55 56 58 58 57 57 57 56 54 50 45 40 33 29 31 33 34 33 31 29 28 26 26 24 20 18 16 16 16 17 16 14 14 13 14 16 18 16 14
44 40 38 39 40 40 39 38 36 36 38 41 43 46 49 49 48 50 54 57 59 60 61 62 65 66 68 68 70 72 71 70 69 67 68 70 70 69 69 67 65 64 63 62 60 59 58 58 58 58 59 60 59 59 60 59 58 57 53 49 46 38 32 32 34 33 33 32 31 29 28 26 24 20 19 18 16 16 18 16 14 13 13 15 16 17 15 12
50 45 40 38 38 40 41 40 38 37 37 40 43 45 48 51 51 50 53 57 60 61 62 63 64 67 69 70 72 73 73 73 71 70 70 72 72 71 71 70 68 66 65 63 62 61 60 60 59 60 63 62 61 61 61 60 58 56 54 51 48 42 37 37 35 32 32 32 31 30 29 27 24 21 20 19 16 16 16 14 13 12 13 13 13 14 12 8
55 50 45 41 39 38 40 41 41 39 38 39 41 44 47 50 52 52 52 56 60 62 64 65 65 67 69 71 73 75 75 76 74 72 72 73 74 73 73 72 70 69 67 65 64 63 62 61 62 64 64 62 62 63 62 60 58 56 55 53 50 45 42 41 36 32 34 33 32 31 30 27 24 24 25 21 17 16 16 13 11 11 12 10 11 13 8 5
57 53 49 46 43 39 39 40 41 41 40 39 40 43 46 49 52 54 53 54 59 62 65 66 67 68 69 72 75 76 76 77 77 74 73 74 75 75 75 74 73 72 70 68 67 66 64 64 66 66 63 62 63 64 61 59 59 58 57 56 55 50 46 46 41 35 34 34 34 34 32 28 25 26 28 23 19 19 17 13 11 10 10 10 12 13 8 5
59 56 54 51 48 44 40 39 40 41 41 40 40 41 44 48 51 54 55 55 57 62 65 67 69 70 70 72 74 75 76 78 79 77 75 76 76 77 77 77 76 74 73 71 69 68 67 67 67 64 62 62 63 64 62 61 61 61 61 60 60 56 50 49 48 41 35 34 35 36 35 31 28 28 28 25 23 23 20 17 14 12 11 12 13 13 11 7
62 60 58 56 54 50 45 39 39 40 41 41 41 41 43 47 50 53 56 57 57 60 65 69 71 72 72 73 74 75 77 78 81 80 79 78 77 78 79 79 78 77 76 74 73 70 69 69 67 64 64 64 65 65 64 63 63 63 63 63 63 61 56 52 51 46 40 37 36 36 35 32 29 30 30 27 25 23 21 20 20 16 12 11 13 14 12 8
66 64 62 61 59 55 50 42 38 39 40 41 41 41 42 45 48 52 55 58 58 59 64 69 72 74 75 75 74 74 76 78 82 82 81 80 80 80 81 81 80 79 78 77 76 73 72 70 68 67 67 67 68 68 66 66 65 64 64 63 63 62 59 55 54 50 44 40 37 35 36 36 34 31 29 28 27 26 23 22 21 18 13 12 13 15 13 10
70 68 67 65 62 58 52 44 38 38 40 41 41 41 42 44 47 51 54 57 59 60 62 67 71 74 76 76 75 74 75 78 82 83 83 83 83 83 82 82 82 81 81 80 79 77 74 71 70 70 69 69 70 69 68 68 67 66 66 65 64 63 60 56 55 53 51 47 42 38 37 38 39 37 33 29 28 29 27 25 23 20 17 14 14 14 14 12
74 73 71 68 64 59 52 44 37 36 38 40 41 41 42 43 46 50 53 55 58 60 61 65 70 74 76 77 77 76 76 79 83 84 85 86 86 86 84 83 83 83 83 83 81 79 76 74 73 73 72 71 71 70 69 69 69 69 68 67 66 65 61 56 55 56 55 53 49 45 42 39 39 40 38 33 30 29 28 27 26 23 19 16 15 15 15 14
78 76 74 69 63 57 49 42 36 35 37 40 41 41 42 43 46 49 52 54 56 60 62 63 68 72 75 77 78 79 81 83 84 84 86 87 88 88 86 85 84 85 85 85 83 81 79 77 77 76 75 73 72 72 72 70 70 70 69 68 67 66 63 59 57 57 56 56 54 51 49 46 41 39 39 37 35 33 29 28 29 25 21 19 18 17 16 15
82 79 74 67 60 52 44 38 34 34 36 38 40 41 42 43 46 48 51 53 55 58 61 63 65 70 75 77 79 83 86 85 83 84 85 88 89 89 88 87 86 86 86 86 85 83 82 81 81 79 77 76 75 75 75 73 72 71 69 68 67 66 65 61 61 61 59 58 57 55 53 52 48 44 41 40 39 37 33 30 29 26 23 22 21 19 17 16
83 78 71 63 55 46 39 34 32 32 34 36 38 40 42 43 45 48 50 53 54 57 60 62 64 67 73 77 80 83 86 85 84 84 85 88 89 89 90 90 89 88 87 87 87 86 85 85 84 83 80 78 78 78 77 75 73 70 68 68 68 68 67 65 64 63 61 60 60 60 57 55 52 49 44 42 41 40 36 32 31 28 26 25 24 22 20 17
81 73 65 56 48 41 34 30 30 31 33 35 37 39 41 43 45 47 49 52 53 55 58 61 63 65 70 75 79 82 86 87 87 87 87 88 89 89 91 92 91 90 89 88 88 87 88 88 87 85 83 82 81 80 79 76 72 70 69 69 69 69 70 69 67 65 64 63 64 63 60 56 54 52 47 45 44 42 38 36 34 31 28 27 26 26 23 20
75 66 57 49 42 36 31 28 28 30 31 33 35 37 39 42 44 46 49 51 51 53 56 59 62 64 67 72 76 82 86 88 89 89 89 89 88 89 92 92 93 93 92 90 88 88 89 90 89 88 86 85 83 82 80 77 75 74 72 72 72 72 72 71 69 68 66 65 65 64 62 58 56 54 50 48 47 45 43 41 39 36 31 28 27 28 26 23
66 57 48 42 36 31 28 26 27 29 30 32 34 36 38 40 43 45 48 49 50 52 55 58 61 64 66 67 73 81 86 87 89 90 90 91 89 89 91 93 94 95 94 92 90 89 90 90 91 90 89 87 85 84 83 82 79 76 74 74 76 75 75 74 72 68 66 65 65 64 63 60 57 55 53 51 50 48 47 45 42 39 35 31 29 30 30 26
56 48 41 36 32 28 26 25 26 28 30 31 33 35 37 39 42 45 47 48 49 52 56 58 61 63 64 65 71 79 83 86 89 90 91 93 91 90 92 93 95 96 95 94 92 91 91 91 92 93 91 89 89 88 87 85 81 78 77 78 77 75 75 75 72 68 66 66 66 64 64 61 58 56 55 54 53 51 49 47 44 42 38 35 34 33 33 30
47 40 35 31 28 26 24 24 26 27 28 30 32 34 36 38 41 44 46 47 50 53 56 58 60 62 63 65 70 75 79 84 89 90 91 93 93 92 93 92 93 94 94 95 94 94 93 93 94 94 93 93 93 90 88 86 83 82 81 80 78 76 76 75 72 68 66 65 65 64 65 63 59 59 58 56 55 54 51 49 47 46 43 40 39 37 36 33
39 34 30 28 27 25 24 24 25 26 27 28 30 32 34 37 40 43 45 48 52 54 56 58 59 61 63 66 68 73 76 81 86 89 90 93 95 95 94 91 91 93 94 95 96 96 96 96 96 95 94 95 93 90 88 88 86 84 83 82 81 80 80 78 74 72 69 66 67 66 67 66 62 61 60 58 57 55 52 52 50 50 48 45 42 39 37 35
33 29 27 26 26 24 23 23 24 24 26 27 29 30 33 35 38 42 45 48 52 55 57 59 60 63 65 66 67 70 74 78 83 86 87 91 94 95 94 93 93 93 94 95 97 99 99 99 99 96 95 95 92 91 92 92 89 87 87 85 84 84 82 79 77 75 71 68 69 69 69 69 64 62 61 60 58 55 53 55 54 53 53 50 46 42 40 39
29 26 26 26 25 24 22 22 22 23 24 26 27 29 31 34 37 41 44 47 51 55 58 60 62 64 66 66 67 69 72 76 79 81 84 88 92 94 95 96 95 95 95 97 99 101 101 101 100 98 96 95 93 93 95 94 91 90 90 89 87 86 84 81 78 76 73 71 71 71 71 70 64 61 61 59 58 56 55 56 56 56 55 54 51 47 43 41
26 25 25 25 25 24 22 21 22 23 23 24 26 27 30 33 37 40 43 46 50 53 56 59 62 65 66 67 68 68 70 74 76 78 82 85 90 93 95 97 97 98 99 99 100 101 101 102 102 99 98 96 95 94 95 95 93 93 94 93 90 88 86 83 80 78 76 74 74 75 75 71 64 61 60 59 59 59 58 57 57 57 56 55 53 50 47 45
25 24 25 25 24 23 22 21 21 22 22 23 24 26 29 32 34 37 41 44 48 51 54 57 60 64 67 68 68 68 70 72 73 76 79 81 86 90 93 96 98 101 103 103 102 102 102 103 104 103 101 99 97 96 96 96 95 95 98 96 93 91 88 85 83 82 80 77 78 79 77 71 67 62 59 61 63 62 61 59 58 58 56 55 53 52 51 50
24 24 24 24 23 22 22 22 22 22 22 23 24 26 28 29 31 34 36 40 43 48 52 55 59 63 67 69 69 69 71 71 72 75 78 80 84 89 95 98 100 103 106 104 103 102 102 103 104 103 103 101 100 99 99 97 96 96 98 97 95 93 90 88 87 86 84 81 81 81 76 72 70 66 63 64 65 64 63 63 61 59 58 56 54 53 52 51
24 24 23 22 21 21 22 23 24 24 24 25 27 28 29 28 29 29 31 34 38 42 48 53 58 61 64 67 69 72 74 73 72 74 78 80 84 90 95 98 101 105 107 105 104 103 100 100 100 101 102 102 101 102 101 99 98 97 98 98 96 94 93 91 90 88 86 84 84 83 78 74 72 70 69 69 68 66 65 65 65 62 60 58 57 54 53 54
24 23 22 20 19 20 23 25 26 25 26 28 30 31 31 28 27 26 27 29 33 36 42 48 54 58 61 65 69 72 74 73 73 75 79 82 86 90 93 95 99 103 103 103 103 102 100 99 100 101 102 101 102 103 102 100 99 99 99 98 97 95 94 92 89 88 87 85 85 84 81 79 76 72 72 72 71 69 68 67 66 65 63 61 59 55 52 55
23 22 20 17 17 19 24 27 27 27 28 31 33 34 31 27 24 23 23 25 28 32 36 41 47 53 59 65 68 71 72 72 73 76 80 85 88 91 91 93 94 94 95 97 100 101 101 101 102 102 102 102 102 103 103 102 102 102 100 98 97 95 94 92 90 90 88 87 87 85 81 80 77 72 71 72 71 68 68 69 67 65 65 63 60 56 53 51
21 20 17 15 16 20 25 28 28 28 30 33 35 34 30 24 20 19 19 21 24 28 31 35 41 47 54 61 67 72 75 76 76 78 80 84 87 89 89 90 88 86 88 93 98 101 102 102 103 103 102 102 102 101 102 103 104 103 101 98 96 95 93 92 91 91 90 90 90 88 84 82 77 70 66 68 72 71 69 70 70 68 66 63 60 59 59 57
20 18 14 13 16 21 26 28 29 30 32 35 36 34 30 24 19 16 16 17 20 24 28 31 36 42 48 56 63 69 74 78 79 79 80 82 83 83 84 83 82 82 85 90 96 100 101 101 103 103 102 101 101 100 101 103 103 102 99 97 96 96 95 93 92 91 91 92 93 92 90 85 80 73 65 60 63 70 73 70 70 71 68 63 59 57 56 57
19 16 12 13 17 22 26 28 29 31 34 37 37 35 30 25 19 15 14 14 17 21 24 28 32 38 44 50 57 63 70 76 78 77 79 82 81 80 80 79 79 81 85 89 95 99 101 101 102 103 102 101 101 100 100 102 103 103 101 99 98 98 98 96 96 96 96 96 95 94 91 87 81 77 72 61 51 55 69 75 73 71 69 65 62 57 51 49
17 13 10 14 19 22 25 28 29 32 35 38 38 35 29 23 18 14 12 12 14 17 21 25 28 33 39 46 51 57 63 70 75 77 80 83 82 80 79 78 79 82 84 87 90 93 97 99 100 102 101 99 98 98 100 103 105 104 102 99 98 99 101 101 101 101 100 100 98 94 91 88 84 80 77 73 59 47 54 70 76 73 71 68 66 63 58 54
15 11 12 16 19 22 26 28 31 34 37 40 39 35 29 24 18 14 11 10 11 14 17 21 25 29 35 41 46 52 57 63 71 76 80 83 82 80 79 78 79 81 84 85 85 87 91 95 98 101 101 99 97 96 99 103 104 103 101 100 98 100 103 104 103 102 102 101 99 96 92 89 87 84 80 79 76 61 50 61 74 76 74 72 69 67 65 61
12 10 14 17 18 22 26 29 32 36 39 41 41 37 31 26 20 15 11 8 9 12 15 18 22 26 29 34 40 46 52 58 64 71 77 83 84 82 81 80 80 82 84 85 85 87 89 91 93 96 99 100 100 98 98 100 101 101 101 100 100 103 107 106 104 103 103 103 100 97 95 91 88 88 84 80 81 77 66 64 70 74 76 74 71 69 67 63
10 10 14 17 20 23 26 28 32 35 39 42 43 39 33 28 22 17 13 9 7 9 11 15 19 22 25 28 33 39 46 52 58 64 70 77 82 84 83 82 82 84 85 85 86 87 88 88 89 91 95 97 98 98 97 98 100 100 101 100 100 104 107 107 105 105 105 104 102 98 96 93 89 89 87 84 84 85 81 74 69 69 73 74 72 70 68 66
10 10 15 18 21 23 24 27 31 34 38 42 43 41 35 29 25 20 15 11 7 7 9 12 16 19 22 25 29 34 39 45 51 58 64 70 76 82 85 85 85 85 85 85 86 86 86 87 88 90 93 93 93 94 93 93 96 99 101 102 104 107 108 107 106 107 107 105 103 100 97 94 92 90 89 89 90 90 87 83 78 74 72 72 72 71 69 68
10 11 16 19 20 22 23 26 30 33 37 41 43 42 37 31 27 23 18 13 9 7 9 11 14 17 20 23 27 30 34 39 44 50 57 63 69 75 81 85 87 86 85 84 85 85 85 87 88 90 92 92 92 93 92 92 94 98 98 98 103 108 109 109 108 107 108 107 104 102 99 94 91 91 90 90 91 91 89 86 84 82 78 73 71 71 69 68
10 13 17 18 20 21 23 26 29 32 36 40 42 42 39 33 29 25 20 16 11 7 8 9 11 15 19 21 23 26 30 33 37 42 48 54 60 67 74 81 85 86 86 85 86 86 87 88 89 88 88 89 90 91 92 93 94 96 96 97 103 109 109 107 106 106 108 108 106 102 99 95 91 89 90 91 91 91 90 86 84 83 81 77 73 72 71 69
10 14 16 18 19 21 23 25 29 31 35 39 41 42 39 35 31 27 23 19 14 9 7 7 9 13 17 19 21 23 27 30 33 38 43 48 52 58 65 73 79 84 87 88 89 89 90 90 87 85 84 84 85 86 89 90 91 94 98 101 106 109 106 102 103 105 108 108 106 103 99 96 93 91 91 93 92 91 90 88 87 85 83 80 78 75 73 71
9 13 15 17 19 21 23 26 29 31 34 37 40 41 39 35 32 29 25 22 17 12 7 6 8 11 15 18 19 20 23 27 32 36 40 43 47 52 58 65 72 79 85 89 91 91 91 90 86 83 83 83 83 84 86 88 89 91 95 100 103 103 101 100 102 106 109 108 105 102 101 99 96 94 96 96 94 92 91 91 90 89 86 83 81 79 76 74
10 13 16 18 19 21 24 26 29 31 33 36 38 40 39 35 31 29 27 24 19 14 9 7 7 9 12 15 17 18 21 25 29 32 35 39 43 48 53 58 64 70 78 85 90 91 91 90 86 84 83 83 84 86 88 89 90 91 93 98 100 98 97 98 101 106 111 109 104 101 101 100 98 98 98 98 96 94 94 93 93 92 89 86 85 83 80 77
Wind_Direction
283 283 282 280 277 271 264 257 253 250 245 240 236 233 231 229 226 223 221 220 220 220 218 216 213 211 210 209 208 208 209 210 210 209 207 208 208 207 207 209 209 208 207 207 207 206 204 202 201 202 203 205 206 206 205 204 204 206 204 203 206 198 192 179 159 156 178 192 200 195 202 208 206 216 233 250 267 322 336 345 357 20 33 29 29 25 23 21
282 281 280 280 277 274 269 262 255 250 246 242 237 233 231 229 227 225 222 220 219 219 218 217 215 212 211 210 209 208 209 210 211 210 209 208 208 207 208 209 209 210 209 208 207 206 205 203 202 202 203 205 206 206 205 205 205 206 206 207 210 202 201 187 165 167 183 188 195 192 200 210 216 228 242 265 311 341 345 350 4 36 33 25 26 24 21 19
286 281 278 278 277 275 271 267 259 252 246 243 239 234 231 229 228 226 223 221 219 219 218 217 216 214 212 211 210 209 209 210 211 211 211 209 207 207 208 209 209 210 210 209 208 207 205 203 202 201 202 204 206 206 205 206 205 205 206 206 208 205 207 197 181 182 184 188 197 194 202 215 223 229 224 235 318 351 351 343 359 32 14 13 19 19 16 15
296 287 280 275 274 274 272 269 263 256 249 243 240 236 232 229 227 226 224 222 220 219 218 217 216 215 213 212 211 210 209 210 211 211 211 209 208 208 209 210 209 209 210 210 210 208 206 204 202 201 202 204 206 207 206 207 207 206 207 208 207 205 208 204 195 193 183 183 195 197 203 208 217 232 224 207 221 250 316 320 308 334 341 350 2 9 9 9
305 297 287 278 272 270 271 270 266 260 253 246 241 237 233 230 228 226 225 223 221 219 218 218 217 216 215 213 212 211 210 210 211 211 211 210 209 208 209 210 209 209 210 211 211 210 208 206 203 201 201 203 206 207 205 208 209 207 208 209 208 205 209 206 201 203 191 185 189 193 204 208 213 224 215 216 228 247 290 293 280 309 326 333 344 353 358 3
310 304 296 286 276 269 267 267 267 263 257 250 243 238 235 231 228 226 225 224 222 220 219 218 218 216 215 214 213 212 211 211 211 210 210 211 210 209 210 211 210 210 210 211 212 211 209 207 204 202 202 204 206 206 204 207 210 210 210 211 214 214 216 210 202 208 202 197 190 179 194 206 207 201 192 229 245 258 277 278 280 298 312 320 328 336 347 357
310 306 300 292 284 274 266 263 264 264 259 253 247 241 236 232 229 227 225 224 223 222 220 218 218 217 215 214 214 213 212 213 212 209 210 211 210 210 211 211 211 211 211 211 212 211 211 208 206 203 203 203 206 206 203 206 211 212 213 213 216 217 218 213 206 208 208 209 206 193 192 200 202 198 195 223 247 262 269 270 276 286 301 312 317 324 340 351
307 305 301 295 288 281 272 264 260 261 260 256 250 244 238 234 230 228 226 224 223 222 221 219 218 217 216 215 214 214 213 215 213 210 210 209 209 211 211 212 212 212 212 212 212 212 211 210 207 204 203 204 206 206 204 208 212 212 212 210 212 213 215 216 212 213 211 212 214 208 199 192 196 202 205 218 240 256 261 267 276 287 301 307 310 321 336 345
306 303 300 295 290 284 277 269 261 257 258 258 253 247 241 236 232 229 226 224 223 222 221 220 218 217 217 215 214 213 214 216 214 210 210 209 208 210 211 212 212 212 212 212 212 212 212 211 209 206 205 206 207 207 207 209 210 210 210 210 213 214 214 221 221 220 219 211 209 208 201 193 195 203 208 213 217 227 243 259 274 287 294 298 309 324 336 344
309 304 300 295 290 284 279 273 266 259 255 255 255 250 245 239 234 230 227 225 224 222 221 220 219 218 217 216 214 213 213 217 215 210 211 211 209 209 211 211 212 213 212 212 212 212 212 212 210 207 207 209 208 208 208 209 210 210 211 211 214 215 214 221 223 224 226 215 206 204 203 200 202 210 216 218 218 225 237 253 269 275 280 295 316 328 338 345
313 307 301 296 292 286 279 273 269 263 256 252 252 252 247 242 236 232 228 226 224 223 221 220 220 219 218 217 215 213 214 217 217 211 212 213 210 209 210 211 212 213 213 213 212 212 212 212 212 210 209 210 209 208 210 211 212 213 212 211 211 214 216 221 223 225 227 219 213 212 211 213 215 222 231 234 229 234 245 252 256 258 270 296 314 323 334 339
319 311 304 298 293 288 282 275 269 265 259 253 250 250 249 244 239 234 230 227 225 223 222 220 220 219 218 217 215 215 215 217 217 213 212 214 212 210 210 210 211 212 213 213 213 212 212 212 213 211 211 212 210 210 211 212 214 215 214 211 207 210 217 222 225 225 225 221 217 217 218 222 226 231 238 229 215 223 236 240 243 252 273 297 308 316 324 328
324 317 309 301 295 290 284 278 272 266 261 256 250 247 247 246 241 236 232 229 226 224 222 221 220 219 219 218 216 216 216 217 217 214 213 215 213 212 211 210 210 212 213 213 213 213 212 212 213 213 213 213 211 211 212 212 213 213 213 212 208 207 212 220 227 227 227 226 222 220 218 222 227 231 237 227 212 214 218 227 247 261 277 295 303 311 317 321
326 322 316 306 298 291 286 281 275 269 263 258 252 247 245 245 243 238 233 230 227 225 223 221 220 219 219 218 217 217 217 218 218 214 214 216 214 213 212 211 210 211 212 213 213 213 212 213 213 213 215 214 213 212 212 211 213 213 212 212 208 206 206 211 221 226 227 227 225 221 218 221 223 225 235 233 225 222 216 230 259 266 276 292 301 308 314 322
326 324 320 314 304 294 288 283 277 272 266 260 254 249 244 243 243 240 235 231 229 226 224 222 221 220 219 218 218 217 218 219 218 215 214 215 215 214 213 212 211 211 212 213 213 213 213 213 213 214 215 215 215 214 212 212 214 214 213 213 210 207 206 205 211 217 219 222 221 219 219 221 219 218 227 228 222 222 223 240 262 269 281 291 300 310 316 328
326 323 322 319 312 300 290 284 279 273 268 263 257 251 245 242 241 240 237 232 229 227 225 223 221 221 219 218 218 218 218 219 219 215 214 215 215 215 214 213 212 211 212 212 213 213 213 214 214 216 216 215 216 216 213 213 215 216 215 213 211 209 208 207 211 214 215 219 219 216 215 217 217 218 223 222 215 217 224 237 253 269 286 292 301 308 310 329
325 324 322 320 317 308 295 285 279 274 269 265 260 253 247 243 240 239 238 234 229 227 226 224 222 221 220 219 219 218 218 219 220 217 216 216 216 216 215 214 213 212 212 212 213 213 213 214 215 216 216 216 218 217 216 216 216 217 215 213 213 212 211 209 210 212 214 219 218 215 213 214 216 217 220 219 213 214 218 229 241 253 273 287 294 295 292 305
325 324 323 321 319 315 304 288 278 273 268 265 261 256 249 244 240 238 237 236 231 227 225 224 223 222 221 221 220 218 217 219 220 219 217 216 216 216 216 215 214 213 213 212 213 213 213 215 215 216 216 217 219 219 218 218 218 217 216 214 214 215 214 213 211 212 217 219 218 215 213 214 217 218 218 212 210 217 222 232 237 232 250 274 279 281 282 289
326 325 323 322 320 317 311 295 279 271 266 264 261 257 251 245 241 238 237 235 233 229 225 224 223 222 221 221 221 219 217 218 220 219 218 217 217 216 216 216 215 214 213 213 213 213 213 215 215 215 216 217 219 220 218 219 219 219 218 216 216 217 216 217 215 213 216 218 217 215 213 214 218 220 220 214 215 225 232 237 232 224 233 249 261 273 279 284
326 325 323 322 320 317 313 302 282 269 263 261 259 256 251 245 241 238 237 235 233 230 226 224 223 222 222 221 221 219 218 218 220 219 218 218 217 217 216 216 215 215 214 214 213 213 213 215 215 215 216 217 219 219 217 218 220 220 220 219 219 220 219 220 219 213 213 216 217 217 216 218 217 218 222 225 227 231 236 235 227 224 228 226 243 265 280 287
326 325 323 321 319 316 312 304 286 269 259 256 255 254 251 245 240 238 236 235 233 231 228 225 223 222 222 222 221 220 219 219 220 219 218 218 218 218 217 216 215 215 215 215 214 213 213 214 215 216 216 217 219 219 217 218 219 220 221 221 222 223 222 224 225 219 216 219 220 219 219 221 221 221 228 234 233 231 235 236 230 233 239 233 234 253 273 283
325 324 322 320 318 315 310 302 287 269 257 253 251 250 249 245 239 237 236 234 233 232 229 226 223 222 221 221 220 220 220 220 220 219 218 218 218 218 218 217 216 215 215 215 215 214 213 214 215 216 216 217 219 219 218 219 220 220 221 221 222 222 222 226 228 226 224 224 224 224 224 224 225 226 229 232 233 232 234 237 237 239 242 237 228 238 257 270
325 323 321 319 316 313 308 299 285 268 257 251 249 247 247 244 239 236 235 234 232 232 230 227 224 222 221 220 219 220 220 220 220 219 219 218 218 219 219 218 217 216 216 216 216 215 214 214 215 216 216 217 218 219 218 219 221 222 222 222 223 223 223 225 227 227 227 226 227 228 228 228 228 228 228 230 234 235 234 237 240 241 242 238 230 233 245 260
324 322 320 318 315 311 304 294 281 268 257 251 248 245 244 242 238 236 234 233 232 231 230 228 225 222 221 219 218 219 220 220 219 219 219 219 218 218 219 219 218 217 216 216 216 215 214 215 215 216 217 217 218 219 218 218 221 222 223 224 224 224 225 226 227 227 226 227 227 228 229 229 229 230 228 229 233 235 236 239 242 244 242 237 235 233 237 252
322 321 319 316 313 308 300 289 277 266 259 253 248 245 242 240 238 235 234 233 232 232 231 229 227 223 221 219 218 219 220 220 220 219 220 220 218 218 219 219 219 219 218 217 216 215 215 216 216 216 217 217 218 219 219 218 219 221 223 225 225 225 225 224 226 227 227 228 228 228 228 228 229 230 229 228 232 236 237 239 241 243 241 239 240 237 237 246
321 319 317 315 311 305 297 286 275 267 261 256 250 245 242 239 237 236 235 233 232 232 231 230 228 224 221 219 218 219 220 219 219 219 220 220 219 218 218 219 219 219 219 218 217 216 216 217 217 217 217 217 218 220 219 218 219 220 222 224 225 226 226 224 225 226 227 228 228 227 227 228 229 230 229 228 232 236 237 238 239 240 242 243 242 239 238 240
320 319 316 313 308 302 294 283 275 269 263 258 251 245 242 239 238 237 235 234 232 233 232 230 229 226 223 220 218 219 219 219 219 218 219 220 219 218 218 218 219 219 219 219 218 217 217 217 217 217 217 217 218 220 220 219 219 219 220 222 224 225 225 225 225 226 227 228 228 228 227 228 229 230 230 230 231 233 235 236 237 240 241 242 242 237 234 232
320 318 315 310 305 298 291 283 276 271 265 259 253 247 242 239 239 238 237 235 233 233 233 231 229 227 223 220 219 219 218 219 219 218 219 220 219 219 219 218 218 218 219 219 218 218 218 218 218 218 218 217 218 220 220 220 219 219 220 222 223 224 225 224 224 225 227 228 229 230 229 229 230 231 232 232 231 232 234 235 236 238 238 237 239 234 231 232
320 317 313 307 302 296 290 284 277 271 265 258 252 248 244 241 240 239 238 236 234 233 233 232 230 227 223 220 219 219 218 218 218 217 219 220 219 219 219 218 218 218 218 219 219 218 218 218 218 218 218 218 218 219 220 220 220 219 220 222 224 225 226 226 225 225 228 228 229 230 230 231 232 232 233 232 232 232 235 235 235 237 237 235 234 231 233 239
319 315 310 305 300 297 292 285 277 270 263 257 253 249 247 245 242 240 239 237 235 234 234 232 231 229 226 222 220 219 218 218 218 217 218 220 218 219 220 219 219 219 219 219 219 219 219 219 219 219 218 218 218 219 220 220 220 220 220 222 224 224 226 227 226 226 228 229 230 231 231 231 231 232 233 233 233 233 234 235 234 236 238 237 235 233 236 244
317 313 309 304 300 298 293 285 276 270 264 259 256 253 251 248 245 242 238 236 235 235 234 233 232 230 228 224 221 219 218 218 217 216 218 219 218 219 219 219 220 220 219 219 219 219 219 219 220 219 219 219 219 219 220 221 221 221 221 222 224 224 225 225 225 225 226 227 229 230 231 231 230 231 232 233 233 233 234 236 236 238 240 239 238 237 238 244
317 314 309 304 301 298 293 284 277 273 268 265 261 259 256 252 248 245 240 236 235 234 233 232 231 231 229 226 223 220 219 218 217 216 217 218 219 218 218 218 219 220 220 219 218 218 219 219 220 219 219 220 219 219 221 221 221 222 222 222 223 224 225 225 225 225 225 226 228 230 231 230 230 231 232 233 233 234 236 237 237 238 240 239 238 240 241 242
318 314 308 303 301 299 294 287 282 278 274 272 268 264 261 257 253 249 245 240 237 235 233 231 231 231 230 228 225 221 219 218 218 216 217 218 218 218 218 218 218 219 220 220 219 218 218 219 220 220 219 220 219 219 221 221 220 222 223 222 223 224 225 225 225 226 225 226 227 229 231 230 230 232 234 234 234 235 237 238 238 239 240 239 238 241 240 238
316 312 306 303 302 300 296 291 288 285 281 278 274 270 266 261 257 254 250 245 241 237 234 231 230 231 231 230 227 224 220 219 217 216 216 217 218 218 218 218 218 219 219 219 219 218 218 219 219 219 219 220 219 219 221 221 220 221 224 223 223 223 224 224 224 225 225 226 227 228 229 229 228 231 235 236 236 236 236 237 238 238 240 241 240 240 238 239
314 311 306 305 304 301 299 297 297 295 291 286 282 278 274 268 262 256 251 246 242 239 236 232 229 229 229 230 228 226 223 219 217 216 216 217 218 218 218 217 218 219 219 218 218 218 218 218 218 218 218 218 219 219 220 221 221 222 224 224 223 223 224 224 224 224 224 225 227 228 229 228 227 227 231 234 235 236 235 236 238 238 239 241 243 242 242 244
314 310 308 307 305 302 303 307 309 308 303 298 294 291 287 280 271 261 252 246 240 237 235 232 228 227 227 227 227 227 226 222 217 215 216 216 217 218 218 217 217 218 218 218 218 218 218 219 218 218 218 218 218 219 219 220 221 222 224 225 225 224 224 223 224 224 224 225 227 228 229 229 228 227 228 232 233 234 236 236 237 238 238 240 243 245 246 248
314 311 310 309 306 307 312 316 317 316 313 311 309 306 300 292 281 268 256 248 240 234 231 229 228 226 225 225 225 224 225 223 218 216 216 216 217 218 218 217 217 218 218 217 218 219 219 220 220 219 219 219 219 220 220 220 221 222 223 225 225 225 225 225 225 226 226 226 228 229 228 227 228 228 229 231 232 232 234 237 237 237 237 239 240 244 247 248
313 312 313 309 309 316 318 318 320 322 321 320 319 315 310 301 289 276 262 251 242 234 229 227 226 225 223 223 223 223 224 223 219 216 215 215 217 219 219 218 218 218 218 218 219 219 219 220 220 219 219 219 219 221 221 220 221 222 223 225 225 225 226 226 226 227 228 228 230 231 229 228 228 229 230 233 234 234 235 237 238 237 237 237 239 241 242 244
314 314 314 311 317 323 319 320 324 327 327 326 324 321 316 307 294 280 266 254 245 237 230 225 223 222 222 221 220 221 223 224 222 219 217 216 216 218 218 218 218 218 218 218 219 219 219 220 220 219 219 218 219 220 221 221 221 222 223 224 225 226 227 226 226 226 227 228 229 230 230 229 229 229 232 235 236 237 237 238 239 239 239 238 239 238 236 239
315 316 314 314 326 327 319 321 327 330 331 330 328 325 320 313 300 284 269 256 246 240 232 225 221 220 220 220 219 218 219 221 222 221 220 220 219 219 218 217 217 217 217 218 219 218 219 220 220 219 219 218 218 220 221 221 222 223 223 224 225 226 227 227 227 226 226 227 227 228 229 229 228 227 231 236 237 237 238 239 239 240 239 239 240 239 236 238
317 317 314 324 334 327 319 323 330 333 334 333 332 331 329 324 314 297 278 260 247 239 233 226 220 218 218 218 219 218 217 218 220 220 221 222 222 221 221 219 217 217 217 218 218 218 218 219 220 219 219 218 218 219 221 221 222 223 223 224 225 226 226 227 227 227 227 227 228 228 228 227 226 224 224 231 236 236 236 238 238 238 238 237 238 238 237 237
318 316 321 337 336 325 321 327 333 336 337 337 339 340 338 333 324 307 286 266 249 238 233 227 220 217 217 217 217 218 217 218 219 220 221 223 223 221 221 219 218 218 219 219 219 218 217 218 219 219 219 219 218 218 220 221 221 221 221 222 223 225 226 226 226 226 226 227 227 228 228 227 226 224 220 221 228 233 234 234 236 236 235 233 233 233 233 235
318 320 335 343 333 324 326 331 336 339 340 342 345 345 343 339 332 318 297 275 255 239 233 229 223 218 216 216 216 216 216 217 218 219 220 222 223 222 220 219 217 218 220 221 221 220 219 219 219 219 218 219 220 220 220 221 221 221 221 221 222 224 226 226 226 227 226 227 227 227 227 227 226 225 222 220 223 227 230 231 232 233 233 231 231 233 236 239
321 331 343 338 332 330 332 336 340 342 343 346 348 350 350 348 342 331 314 290 263 242 233 229 225 220 217 216 215 215 215 215 216 217 218 221 223 223 220 219 218 218 220 221 221 221 221 220 219 219 218 218 219 220 221 221 221 221 220 220 220 223 225 226 227 228 229 229 228 227 226 226 225 225 224 223 223 223 226 230 230 231 232 232 232 234 237 239
326 340 340 338 339 338 337 340 343 344 346 349 352 354 355 354 351 344 333 310 272 247 238 230 226 223 218 217 216 215 214 215 215 216 216 218 221 222 221 219 218 219 220 220 220 221 221 220 219 219 218 218 218 219 221 222 222 221 221 220 220 222 224 225 226 228 229 230 230 228 227 226 225 225 225 224 224 223 226 231 232 232 232 232 233 234 235 236
329 340 342 347 347 340 339 343 344 345 349 353 356 357 358 359 357 353 348 332 289 254 244 236 229 224 219 216 216 216 215 215 215 215 216 216 218 220 221 219 219 219 219 220 221 221 221 220 219 219 218 218 219 219 220 221 221 221 221 221 221 222 223 225 225 227 228 230 230 229 229 227 227 226 225 224 224 225 226 229 231 232 232 231 232 233 234 235
332 343 352 353 346 339 341 345 345 348 352 356 358 359 0 2 2 358 356 347 315 267 246 238 231 224 220 217 216 214 214 214 214 214 215 216 216 218 219 219 219 220 220 220 221 222 222 221 220 219 218 217 218 218 219 220 221 221 222 221 222 223 223 224 225 226 228 229 229 229 229 228 228 228 228 227 227 228 228 229 231 233 233 232 232 232 233 234
340 353 356 351 341 339 345 348 348 351 355 359 1 1 1 4 6 3 1 356 336 287 253 241 234 227 221 218 217 214 212 212 214 215 215 215 215 216 217 218 219 220 220 220 222 223 223 223 222 220 218 217 217 217 217 218 219 220 221 222 224 224 224 223 224 226 228 229 229 229 229 228 228 229 230 231 231 232 232 232 232 234 234 233 232 231 232 233
352 356 351 344 340 343 347 350 351 353 358 1 3 3 3 3 6 8 5 1 350 313 272 251 241 233 227 224 221 217 213 211 212 215 216 216 216 215 216 217 218 219 220 220 221 222 223 224 223 222 220 219 219 218 217 218 219 219 219 220 222 224 223 223 224 226 228 229 229 229 229 228 227 228 230 231 232 233 234 233 233 234 234 234 232 231 231 231
357 351 345 341 342 345 349 352 354 356 360 3 4 4 4 3 5 8 8 5 359 337 298 262 241 234 230 227 224 221 217 212 211 213 214 215 215 215 216 216 216 218 219 219 220 221 223 224 224 222 222 221 221 220 219 219 220 220 220 221 223 224 223 223 224 225 227 228 229 229 229 228 227 226 228 230 231 232 233 233 233 233 234 234 234 233 232 231
341 336 338 341 344 347 350 353 356 358 1 3 4 4 5 5 3 5 9 8 4 353 326 275 244 236 235 233 229 225 222 217 215 215 214 214 213 213 214 216 215 216 218 219 220 221 222 224 224 223 222 221 220 220 219 219 219 221 221 222 223 224 223 223 224 225 226 227 228 228 228 228 227 226 227 228 229 231 232 232 233 233 232 233 234 234 233 232
320 322 333 341 346 349 350 351 355 358 1 4 4 4 5 6 5 4 6 8 7 3 347 303 260 242 240 239 236 230 227 225 222 219 217 217 216 214 214 215 215 215 217 219 221 221 222 224 224 223 223 222 221 221 220 219 219 220 222 222 223 222 222 223 224 226 227 226 226 227 227 227 227 227 227 228 228 229 230 231 232 233 232 232 233 234 233 232
Height
10899 10898 10897 10897 10897 10897 10898 10899 10901 10903 10904 10906 10908 10910 10912 10913 10915 10918 10920 10923 10925 10927 10930 10932 10934 10936 10939 10941 10944 10947 10950 10953 10956 10959 10962 10964 10968 10972 10974 10976 10979 10982 10984 10987 10990 10992 10995 10997 10999 11001 11003 11006 11008 11010 11013 11015 11016 11018 11020 11023 11024 11026 11029 11030 11031 11032 11032 11032 11033 11033 11034 11035 11035 11035 11035 11035 11035 11034 11034 11034 11033 11033 11033 11032 11032 11031 11030 11029
10896 10895 10894 10893 10893 10893 10893 10894 10896 10897 10899 10901 10903 10905 10907 10909 10911 10913 10915 10918 10921 10923 10925 10928 10930 10932 10935 10937 10940 10943 10946 10949 10953 10956 10958 10961 10965 10969 10971 10973 10976 10979 10982 10985 10987 10989 10991 10994 10996 10999 11001 11004 11005 11008 11010 11012 11014 11017 11019 11022 11023 11025 11027 11028 11028 11029 11030 11031 11032 11033 11033 11034 11035 11035 11035 11035 11034 11034 11034 11034 11034 11034 11033 11033 11032 11032 11031 11030
10892 10892 10891 10890 10889 10888 10889 10889 10890 10892 10894 10896 10897 10899 10902 10904 10906 10908 10910 10913 10916 10919 10921 10923 10926 10928 10931 10933 10936 10939 10942 10945 10949 10951 10954 10959 10962 10965 10967 10969 10972 10976 10979 10982 10983 10985 10987 10990 10993 10996 10999 11001 11003 11005 11008 11010 11012 11015 11017 11019 11021 11023 11025 11026 11026 11027 11029 11030 11031 11032 11032 11033 11034 11034 11034 11034 11034 11034 11034 11035 11034 11034 11033 11033 11032 11032 11031 11031
10888 10887 10887 10886 10885 10884 10884 10884 10885 10886 10888 10890 10892 10893 10896 10898 10901 10903 10906 10908 10911 10914 10916 10919 10921 10924 10926 10929 10932 10935 10938 10942 10944 10947 10952 10956 10958 10961 10963 10965 10969 10972 10975 10978 10980 10982 10984 10987 10990 10993 10996 10999 11001 11003 11006 11008 11010 11013 11014 11016 11018 11020 11023 11024 11025 11026 11028 11030 11031 11031 11031 11032 11032 11033 11034 11034 11035 11035 11034 11034 11034 11033 11033 11033 11033 11032 11032 11032
10884 10883 10882 10881 10880 10880 10880 10879 10880 10881 10882 10883 10885 10888 10890 10892 10895 10898 10900 10903 10905 10908 10911 10914 10917 10919 10922 10925 10928 10930 10934 10937 10938 10943 10948 10951 10954 10957 10959 10962 10965 10968 10972 10974 10976 10979 10982 10985 10988 10991 10994 10996 10998 11001 11004 11006 11008 11011 11013 11014 11015 11018 11020 11022 11024 11025 11027 11029 11030 11031 11031 11031 11032 11034 11034 11034 11034 11034 11034 11034 11033 11033 11033 11033 11033 11033 11033 11032
10881 10879 10877 10876 10875 10875 10875 10875 10875 10875 10875 10877 10879 10881 10884 10886 10889 10892 10895 10897 10900 10902 10905 10909 10912 10914 10917 10920 10923 10927 10930 10930 10933 10939 10944 10947 10951 10954 10956 10958 10962 10965 10967 10970 10973 10977 10980 10983 10986 10989 10992 10994 10996 10998 11002 11004 11006 11008 11010 11012 11014 11016 11018 11020 11022 11024 11025 11027 11029 11030 11031 11031 11032 11033 11033 11034 11034 11034 11034 11034 11033 11033 11033 11033 11033 11033 11033 11033
10877 10875 10873 10872 10870 10870 10869 10869 10870 10869 10870 10870 10872 10874 10877 10880 10883 10885 10888 10891 10894 10897 10899 10903 10906 10910 10912 10915 10919 10922 10925 10925 10929 10936 10939 10943 10947 10950 10952 10955 10958 10961 10964 10967 10971 10974 10978 10980 10984 10987 10989 10992 10994 10997 11001 11002 11003 11006 11008 11011 11013 11015 11016 11019 11021 11023 11024 11025 11027 11029 11030 11030 11031 11032 11033 11033 11033 11033 11033 11033 11032 11032 11032 11033 11033 11033 11033 11033
10872 10870 10869 10867 10866 10864 10864 10864 10864 10864 10864 10864 10866 10868 10870 10873 10876 10879 10881 10885 10888 10891 10894 10897 10901 10904 10907 10911 10914 10917 10921 10920 10923 10930 10933 10937 10942 10945 10948 10951 10955 10958 10961 10964 10968 10972 10975 10978 10981 10983 10987 10990 10993 10995 10997 10997 10999 11002 11006 11009 11011 11013 11015 11017 11019 11021 11023 11023 11024 11027 11029 11029 11030 11031 11032 11033 11033 11032 11032 11032 11032 11032 11032 11033 11033 11033 11033 11033
10867 10866 10864 10862 10861 10859 10858 10858 10857 10858 10858 10859 10859 10861 10863 10866 10869 10872 10875 10878 10881 10884 10888 10891 10895 10898 10902 10906 10909 10913 10916 10913 10916 10925 10928 10932 10936 10939 10943 10947 10950 10954 10957 10961 10964 10968 10971 10974 10978 10981 10985 10987 10988 10990 10991 10993 10995 10999 11002 11006 11008 11011 11014 11015 11017 11019 11020 11022 11023 11025 11027 11028 11029 11030 11031 11033 11033 11032 11032 11032 11032 11032 11032 11032 11033 11033 11033 11033
10863 10861 10858 10857 10855 10854 10853 10852 10851 10851 10851 10852 10853 10854 10856 10858 10862 10865 10868 10871 10874 10877 10881 10885 10889 10892 10896 10900 10904 10908 10907 10905 10911 10920 10923 10926 10931 10934 10938 10942 10945 10949 10953 10956 10960 10964 10967 10971 10975 10979 10981 10982 10984 10985 10987 10989 10992 10995 10999 11003 11006 11009 11012 11012 11014 11017 11018 11020 11021 11022 11024 11026 11027 11028 11030 11032 11033 11032 11031 11032 11031 11032 11032 11032 11032 11032 11033 11033
10860 10857 10854 10851 10849 10848 10847 10846 10845 10844 10845 10846 10846 10848 10849 10851 10854 10857 10860 10863 10866 10870 10874 10878 10882 10886 10890 10894 10899 10900 10898 10899 10906 10915 10918 10920 10925 10929 10933 10937 10940 10944 10948 10952 10956 10959 10963 10968 10971 10974 10977 10978 10979 10982 10985 10987 10990 10993 10996 11001 11004 11007 11009 11010 11012 11015 11017 11018 11019 11020 11022 11024 11025 11027 11029 11031 11034 11033 11031 11031 11031 11031 11031 11031 11031 11032 11032 11033
10856 10853 10850 10846 10844 10842 10840 10839 10839 10837 10837 10838 10839 10841 10842 10844 10846 10849 10853 10856 10859 10863 10867 10871 10875 10880 10883 10887 10893 10892 10892 10896 10901 10909 10913 10914 10920 10924 10928 10932 10936 10940 10944 10947 10951 10955 10960 10964 10967 10970 10973 10973 10975 10980 10983 10984 10987 10991 10995 10999 11003 11006 11009 11011 11011 11012 11015 11016 11017 11019 11021 11023 11024 11026 11027 11028 11031 11032 11031 11029 11029 11030 11030 11030 11030 11031 11032 11033
10851 10848 10845 10842 10839 10836 10834 10833 10832 10831 10830 10830 10831 10833 10834 10836 10838 10841 10844 10847 10852 10855 10859 10864 10868 10872 10876 10881 10885 10883 10887 10891 10895 10904 10907 10908 10914 10919 10922 10927 10931 10935 10938 10943 10946 10950 10955 10959 10962 10966 10967 10967 10971 10975 10976 10979 10983 10987 10992 10996 11000 11004 11009 11012 11011 11010 11012 11014 11015 11017 11019 11021 11022 11024 11024 11025 11027 11030 11030 11028 11027 11028 11029 11029 11030 11031 11032 11032
10844 10842 10840 10837 10833 10830 10827 10826 10825 10824 10823 10822 10823 10825 10827 10829 10830 10833 10836 10839 10844 10847 10852 10856 10860 10865 10869 10874 10876 10876 10882 10886 10890 10898 10901 10903 10909 10913 10917 10922 10926 10930 10934 10938 10942 10946 10951 10954 10957 10961 10961 10963 10967 10969 10972 10976 10979 10982 10987 10991 10996 11001 11004 11006 11006 11006 11008 11010 11012 11015 11016 11018 11020 11022 11023 11024 11026 11026 11027 11027 11026 11027 11028 11029 11030 11030 11031 11032
10836 10834 10833 10830 10827 10824 10821 10819 10818 10817 10815 10814 10815 10816 10818 10820 10822 10825 10828 10831 10835 10839 10844 10848 10853 10857 10861 10866 10868 10870 10877 10879 10883 10891 10894 10897 10902 10906 10911 10916 10920 10924 10928 10933 10937 10941 10946 10949 10953 10954 10954 10959 10963 10965 10969 10974 10977 10981 10985 10988 10993 10997 10998 10997 10997 11000 11003 11005 11009 11012 11013 11015 11018 11020 11021 11022 11024 11024 11024 11025 11025 11026 11027 11029 11030 11030 11031 11031
10829 10826 10824 10823 10820 10817 10814 10812 10810 10809 10808 10807 10807 10808 10809 10812 10814 10817 10819 10823 10826 10831 10835 10840 10845 10848 10853 10857 10858 10862 10869 10871 10876 10883 10887 10891 10895 10900 10905 10909 10915 10919 10922 10927 10931 10935 10940 10944 10946 10946 10949 10956 10959 10961 10967 10971 10974 10978 10981 10985 10989 10992 10993 10993 10994 10996 10999 11003 11007 11009 11011 11014 11016 11017 11018 11020 11022 11022 11023 11024 11025 11026 11027 11028 11029 11030 11031 11031
10822 10818 10816 10814 10812 10810 10807 10804 10802 10801 10800 10799 10799 10799 10800 10803 10805 10808 10811 10814 10818 10822 10826 10831 10836 10839 10844 10847 10849 10856 10863 10866 10870 10877 10882 10885 10889 10893 10898 10903 10908 10913 10917 10921 10925 10929 10935 10937 10938 10941 10948 10954 10955 10958 10964 10968 10970 10972 10975 10979 10982 10986 10988 10989 10992 10994 10997 11001 11004 11006 11008 11011 11013 11014 11016 11018 11020 11022 11022 11023 11025 11026 11027 11028 11029 11029 11030 11031
10814 10810 10807 10804 10802 10800 10798 10796 10793 10792 10791 10791 10791 10791 10792 10793 10796 10799 10803 10805 10809 10813 10817 10822 10826 10830 10835 10838 10842 10850 10857 10860 10863 10869 10875 10879 10882 10887 10891 10896 10902 10907 10912 10916 10919 10924 10928 10929 10934 10941 10947 10951 10951 10955 10960 10963 10964 10967 10969 10972 10976 10981 10984 10986 10989 10992 10995 10998 11000 11003 11006 11009 11011 11011 11013 11016 11018 11020 11022 11023 11024 11025 11026 11027 11029 11029 11030 11030
10806 10802 10798 10795 10792 10790 10788 10786 10784 10782 10782 10782 10782 10783 10783 10784 10787 10790 10792 10795 10799 10804 10808 10811 10815 10820 10825 10828 10834 10842 10849 10853 10854 10860 10867 10871 10876 10880 10884 10889 10895 10900 10905 10909 10913 10918 10922 10924 10931 10938 10941 10944 10944 10948 10954 10957 10960 10962 10964 10968 10972 10976 10980 10983 10985 10989 10992 10994 10997 11001 11004 11006 11008 11009 11011 11014 11016 11017 11019 11021 11022 11024 11026 11027 11028 11029 11029 11029
10797 10793 10789 10785 10782 10779 10777 10775 10774 10772 10772 10772 10773 10774 10774 10775 10779 10780 10782 10786 10791 10794 10797 10801 10806 10811 10815 10820 10828 10836 10843 10846 10846 10852 10860 10864 10868 10871 10875 10882 10887 10893 10898 10902 10907 10912 10916 10921 10928 10931 10933 10936 10936 10940 10948 10951 10955 10958 10961 10966 10969 10973 10978 10981 10982 10986 10989 10991 10995 10999 11002 11004 11006 11007 11009 11011 11014 11015 11017 11019 11021 11023 11024 11026 11028 11029 11029 11028
10787 10783 10779 10775 10771 10768 10765 10763 10763 10762 10762 10762 10763 10764 10765 10767 10769 10770 10772 10777 10781 10784 10787 10792 10796 10801 10807 10814 10821 10828 10834 10837 10838 10844 10851 10855 10859 10862 10868 10874 10880 10886 10891 10895 10900 10906 10911 10917 10922 10923 10926 10930 10931 10937 10943 10945 10948 10952 10956 10960 10963 10968 10976 10979 10979 10983 10986 10988 10992 10995 10998 11000 11003 11005 11007 11009 11012 11014 11016 11017 11020 11021 11023 11025 11027 11028 11028 11028
10778 10773 10768 10764 10760 10756 10754 10752 10751 10751 10751 10752 10753 10754 10755 10758 10759 10760 10762 10767 10770 10773 10777 10782 10786 10791 10798 10804 10812 10819 10824 10824 10827 10834 10840 10846 10850 10854 10861 10867 10872 10878 10882 10887 10894 10901 10907 10912 10914 10915 10919 10924 10927 10932 10938 10941 10944 10946 10950 10954 10958 10964 10971 10973 10975 10979 10982 10985 10989 10991 10993 10995 10999 11002 11004 11007 11009 11012 11014 11016 11017 11020 11021 11024 11025 11027 11027 11027
10767 10762 10757 10753 10748 10745 10742 10740 10740 10739 10741 10741 10743 10744 10746 10747 10749 10750 10753 10757 10760 10763 10766 10771 10775 10782 10789 10795 10803 10808 10808 10809 10816 10825 10831 10836 10842 10847 10854 10859 10865 10870 10875 10881 10888 10895 10901 10904 10905 10908 10913 10918 10922 10926 10931 10935 10939 10941 10946 10950 10955 10961 10965 10967 10970 10973 10978 10982 10985 10987 10988 10991 10995 10998 11001 11004 11006 11009 11011 11013 11015 11017 11020 11022 11024 11025 11026 11027
10755 10750 10746 10741 10737 10734 10731 10730 10729 10729 10730 10731 10733 10735 10736 10737 10738 10741 10744 10746 10749 10753 10756 10761 10766 10772 10778 10784 10791 10792 10793 10800 10810 10819 10823 10827 10834 10841 10847 10852 10857 10862 10868 10874 10880 10888 10893 10894 10897 10901 10907 10912 10915 10918 10924 10930 10933 10937 10943 10947 10951 10956 10959 10963 10966 10968 10973 10977 10980 10983 10985 10987 10991 10994 10998 11001 11003 11005 11008 11010 11012 11015 11017 11020 11021 11023 11025 11026
10744 10738 10733 10730 10726 10723 10721 10720 10720 10719 10720 10722 10723 10725 10726 10728 10729 10731 10734 10736 10740 10744 10746 10751 10756 10762 10767 10773 10780 10781 10786 10796 10803 10810 10813 10816 10825 10834 10838 10843 10850 10855 10861 10866 10872 10880 10884 10886 10890 10895 10901 10906 10909 10912 10917 10923 10928 10934 10940 10942 10945 10949 10952 10957 10960 10963 10970 10972 10973 10977 10981 10984 10988 10991 10996 10998 11000 11001 11005 11007 11009 11012 11015 11016 11018 11021 11023 11024
10732 10727 10722 10718 10715 10713 10712 10711 10711 10711 10712 10713 10714 10715 10717 10718 10720 10722 10724 10727 10731 10734 10737 10742 10746 10752 10756 10762 10770 10773 10777 10785 10791 10798 10801 10805 10816 10824 10828 10835 10841 10846 10852 10858 10865 10872 10876 10878 10883 10888 10894 10899 10902 10905 10911 10920 10926 10931 10934 10936 10939 10942 10946 10951 10954 10959 10964 10965 10968 10973 10978 10983 10986 10989 10993 10996 10997 10999 11001 11004 11007 11010 11012 11014 11016 11019 11021 11022
10721 10716 10711 10708 10705 10704 10704 10703 10703 10703 10704 10704 10706 10707 10708 10710 10711 10713 10715 10718 10723 10726 10728 10732 10736 10741 10746 10754 10762 10762 10765 10773 10779 10787 10792 10796 10808 10814 10818 10826 10832 10837 10843 10850 10859 10865 10867 10870 10876 10882 10887 10892 10897 10900 10908 10915 10919 10922 10926 10928 10931 10933 10938 10945 10949 10954 10958 10961 10964 10969 10974 10980 10982 10985 10990 10993 10995 10996 10998 11001 11004 11006 11009 11011 11014 11016 11019 11021
10710 10706 10702 10699 10697 10696 10696 10696 10696 10696 10696 10697 10697 10699 10700 10702 10703 10704 10706 10710 10715 10717 10717 10720 10724 10729 10737 10746 10749 10748 10755 10763 10769 10778 10783 10787 10798 10804 10808 10816 10821 10827 10834 10842 10851 10856 10860 10865 10869 10874 10879 10886 10892 10895 10900 10905 10910 10918 10922 10921 10922 10926 10932 10938 10944 10950 10954 10958 10961 10965 10970 10976 10979 10983 10986 10988 10991 10993 10995 10997 11000 11003 11006 11009 11011 11014 11016 11018
10701 10697 10694 10692 10690 10690 10689 10690 10690 10689 10689 10689 10690 10691 10692 10694 10695 10696 10697 10701 10706 10707 10707 10710 10714 10719 10728 10734 10734 10738 10747 10752 10758 10770 10773 10776 10789 10794 10797 10806 10811 10818 10827 10835 10843 10848 10852 10856 10859 10864 10872 10879 10882 10884 10890 10898 10906 10913 10913 10912 10918 10926 10930 10934 10942 10948 10950 10953 10958 10961 10965 10971 10975 10978 10980 10982 10986 10990 10991 10994 10997 11000 11003 11006 11008 11011 11013 11015
10693 10689 10687 10685 10684 10683 10683 10683 10683 10682 10682 10683 10683 10684 10685 10686 10687 10687 10690 10693 10695 10696 10697 10701 10705 10711 10717 10720 10723 10729 10737 10742 10749 10759 10762 10768 10780 10784 10789 10799 10806 10813 10821 10827 10834 10839 10843 10846 10850 10856 10864 10868 10872 10878 10887 10894 10899 10903 10905 10908 10915 10921 10923 10928 10938 10944 10946 10951 10955 10957 10959 10964 10969 10972 10974 10978 10982 10986 10989 10991 10994 10996 10999 11002 11005 11008 11011 11013
10686 10683 10681 10679 10678 10678 10678 10677 10676 10676 10676 10676 10676 10677 10678 10678 10678 10680 10682 10684 10685 10686 10688 10691 10696 10700 10703 10708 10714 10720 10726 10733 10739 10747 10752 10759 10767 10772 10781 10792 10798 10803 10810 10817 10824 10829 10832 10835 10840 10849 10855 10860 10868 10878 10882 10886 10892 10896 10901 10906 10908 10911 10914 10922 10931 10935 10940 10945 10948 10949 10952 10956 10963 10967 10970 10974 10978 10983 10986 10987 10990 10992 10995 10999 11002 11006 11009 11010
10680 10677 10675 10673 10672 10672 10672 10671 10670 10670 10670 10670 10670 10670 10670 10670 10670 10671 10673 10675 10676 10677 10679 10682 10686 10688 10690 10698 10704 10710 10717 10722 10728 10738 10745 10749 10756 10764 10773 10781 10786 10792 10799 10805 10810 10814 10820 10824 10830 10840 10848 10854 10865 10872 10871 10876 10885 10889 10893 10897 10899 10903 10910 10917 10924 10930 10936 10940 10941 10943 10945 10950 10960 10964 10966 10971 10975 10980 10981 10982 10985 10988 10991 10995 10998 11002 11005 11007
10674 10672 10670 10668 10667 10666 10666 10665 10665 10664 10664 10664 10663 10663 10663 10662 10662 10662 10663 10665 10666 10666 10668 10673 10676 10677 10681 10687 10692 10700 10707 10712 10720 10730 10735 10739 10747 10755 10761 10768 10774 10779 10785 10790 10794 10801 10809 10814 10822 10833 10840 10847 10857 10862 10861 10868 10879 10881 10883 10889 10893 10898 10904 10912 10919 10926 10931 10933 10934 10936 10937 10946 10959 10963 10964 10969 10973 10975 10975 10976 10980 10982 10985 10990 10994 10998 11001 11004
10669 10667 10665 10663 10662 10661 10661 10660 10660 10659 10659 10658 10657 10656 10655 10654 10654 10653 10653 10654 10655 10656 10658 10663 10667 10668 10671 10676 10682 10690 10696 10703 10712 10720 10725 10731 10736 10742 10749 10757 10763 10765 10768 10773 10780 10791 10799 10804 10813 10825 10832 10838 10847 10853 10855 10861 10871 10874 10873 10879 10886 10890 10896 10906 10914 10919 10923 10925 10926 10926 10931 10944 10957 10961 10963 10966 10967 10968 10970 10972 10975 10977 10981 10985 10989 10994 10997 10999
10664 10662 10660 10658 10657 10656 10656 10656 10654 10653 10653 10652 10650 10649 10647 10646 10645 10644 10643 10643 10644 10645 10647 10652 10656 10658 10661 10666 10673 10680 10685 10693 10703 10710 10717 10722 10726 10732 10737 10742 10748 10748 10751 10760 10769 10778 10787 10792 10801 10811 10818 10827 10837 10843 10846 10853 10862 10865 10863 10870 10878 10883 10891 10900 10905 10908 10913 10916 10916 10918 10928 10942 10952 10958 10961 10959 10959 10961 10965 10968 10970 10974 10978 10981 10984 10988 10991 10993
10660 10658 10655 10654 10653 10652 10651 10651 10649 10648 10646 10645 10644 10642 10639 10637 10635 10633 10633 10633 10634 10635 10637 10641 10644 10646 10650 10656 10664 10670 10674 10682 10692 10699 10705 10709 10713 10716 10717 10723 10730 10730 10737 10753 10762 10769 10777 10783 10792 10802 10811 10820 10827 10831 10836 10844 10852 10857 10859 10865 10873 10878 10884 10891 10894 10898 10904 10908 10907 10913 10928 10940 10946 10953 10954 10951 10953 10957 10961 10963 10965 10970 10975 10978 10981 10984 10986 10988
10655 10653 10651 10650 10649 10648 10647 10646 10644 10642 10640 10638 10636 10634 10631 10629 10625 10623 10623 10623 10623 10625 10627 10630 10633 10636 10641 10647 10654 10659 10662 10669 10681 10690 10694 10698 10700 10698 10700 10712 10717 10718 10732 10748 10755 10764 10776 10783 10791 10800 10807 10815 10821 10823 10828 10836 10844 10849 10851 10855 10864 10871 10876 10882 10889 10894 10901 10904 10904 10911 10925 10934 10939 10945 10946 10945 10948 10953 10956 10957 10960 10966 10972 10975 10978 10980 10983 10985
10651 10649 10648 10647 10646 10644 10643 10642 10640 10638 10635 10633 10630 10627 10623 10620 10617 10614 10614 10613 10614 10616 10618 10621 10624 10628 10634 10639 10644 10649 10652 10659 10670 10677 10680 10683 10684 10684 10693 10704 10707 10716 10734 10746 10751 10760 10769 10773 10779 10789 10798 10807 10814 10815 10820 10831 10837 10841 10844 10849 10858 10864 10868 10878 10887 10893 10898 10900 10901 10908 10917 10925 10932 10939 10942 10943 10947 10951 10954 10954 10957 10962 10967 10970 10973 10976 10979 10981
10647 10646 10645 10644 10643 10641 10639 10637 10636 10634 10631 10628 10624 10621 10617 10613 10609 10607 10606 10606 10606 10607 10609 10613 10616 10620 10625 10629 10635 10641 10646 10653 10661 10664 10666 10668 10669 10673 10684 10694 10704 10719 10735 10741 10745 10753 10758 10760 10767 10778 10786 10794 10802 10805 10813 10823 10827 10830 10837 10844 10852 10859 10865 10873 10880 10884 10889 10891 10894 10901 10909 10919 10930 10937 10941 10943 10945 10950 10952 10952 10954 10958 10962 10965 10968 10971 10974 10978
10644 10643 10642 10641 10640 10638 10636 10634 10632 10630 10627 10624 10619 10615 10610 10607 10603 10600 10599 10599 10600 10600 10602 10606 10609 10612 10616 10620 10626 10631 10636 10643 10648 10653 10657 10658 10661 10669 10678 10689 10704 10719 10726 10727 10731 10739 10746 10750 10757 10767 10775 10783 10794 10800 10805 10812 10817 10824 10833 10840 10847 10855 10860 10865 10869 10875 10879 10880 10884 10891 10900 10912 10923 10932 10939 10941 10942 10946 10947 10947 10950 10953 10956 10959 10963 10966 10969 10974
10641 10640 10640 10639 10638 10636 10633 10631 10629 10626 10623 10619 10615 10609 10604 10600 10597 10595 10594 10594 10594 10594 10596 10599 10602 10605 10609 10613 10617 10622 10628 10632 10635 10643 10650 10652 10661 10671 10680 10692 10705 10712 10713 10712 10716 10724 10732 10738 10745 10757 10766 10776 10786 10791 10794 10802 10811 10822 10832 10838 10844 10847 10850 10856 10860 10866 10870 10870 10873 10882 10891 10903 10913 10922 10933 10935 10935 10938 10939 10941 10943 10946 10950 10954 10957 10960 10964 10968
10639 10638 10638 10637 10635 10633 10630 10628 10626 10623 10619 10615 10610 10604 10599 10595 10592 10591 10590 10589 10589 10589 10591 10593 10596 10599 10602 10605 10610 10615 10621 10626 10631 10641 10647 10649 10657 10668 10676 10689 10699 10701 10701 10700 10705 10713 10721 10729 10737 10749 10760 10770 10778 10782 10786 10794 10803 10812 10821 10829 10834 10837 10841 10844 10845 10848 10854 10855 10861 10874 10886 10898 10908 10915 10922 10927 10928 10930 10931 10933 10935 10938 10944 10949 10951 10955 10958 10962
10637 10637 10636 10635 10633 10631 10628 10626 10623 10620 10616 10612 10606 10601 10596 10592 10589 10587 10586 10585 10585 10586 10587 10588 10591 10594 10596 10600 10604 10608 10615 10622 10628 10637 10641 10643 10649 10659 10669 10680 10687 10691 10692 10695 10704 10712 10718 10725 10732 10743 10756 10766 10773 10777 10779 10784 10791 10803 10814 10823 10829 10830 10828 10828 10829 10835 10842 10844 10854 10869 10880 10892 10901 10906 10913 10920 10924 10926 10925 10925 10927 10931 10937 10943 10947 10950 10953 10956
10635 10635 10634 10633 10631 10628 10626 10623 10619 10616 10612 10608 10603 10598 10593 10589 10587 10585 10583 10582 10582 10583 10584 10585 10586 10589 10592 10595 10599 10604 10609 10614 10620 10628 10634 10638 10644 10653 10662 10672 10680 10686 10686 10691 10700 10706 10711 10720 10729 10739 10750 10757 10762 10767 10770 10776 10786 10797 10806 10813 10818 10816 10812 10815 10824 10831 10835 10838 10849 10862 10871 10882 10890 10896 10904 10912 10916 10921 10920 10917 10918 10923 10929 10937 10943 10946 10948 10950
10634 10633 10632 10631 10629 10627 10624 10621 10617 10613 10609 10605 10600 10595 10590 10587 10584 10582 10581 10580 10580 10580 10581 10582 10583 10584 10588 10592 10595 10599 10603 10607 10613 10620 10626 10632 10638 10645 10654 10664 10672 10675 10677 10683 10690 10693 10700 10712 10722 10730 10738 10745 10751 10758 10763 10771 10781 10789 10794 10802 10805 10799 10795 10805 10818 10822 10823 10830 10843 10854 10863 10873 10880 10886 10896 10903 10906 10910 10912 10909 10910 10916 10924 10932 10938 10941 10943 10945
10633 10632 10631 10629 10628 10626 10623 10620 10616 10612 10608 10603 10597 10593 10589 10585 10583 10581 10579 10578 10578 10578 10578 10579 10580 10582 10585 10588 10591 10595 10599 10603 10608 10613 10618 10624 10630 10637 10646 10655 10661 10664 10669 10676 10680 10685 10693 10703 10710 10717 10726 10736 10745 10752 10757 10763 10771 10778 10783 10791 10791 10783 10787 10802 10811 10811 10812 10820 10833 10844 10855 10866 10873 10878 10887 10892 10892 10895 10900 10902 10905 10911 10918 10925 10931 10935 10938 10940
10631 10631 10630 10629 10627 10625 10623 10620 10616 10612 10608 10602 10597 10592 10588 10585 10582 10579 10578 10577 10576 10576 10576 10576 10577 10579 10582 10585 10587 10590 10594 10598 10603 10607 10612 10617 10624 10630 10637 10645 10652 10657 10664 10669 10674 10681 10689 10695 10701 10707 10716 10725 10733 10741 10748 10753 10762 10767 10772 10777 10774 10770 10781 10796 10800 10800 10804 10812 10824 10834 10845 10859 10867 10872 10878 10881 10880 10883 10890 10897 10900 10904 10910 10917 10924 10929 10931 10934
10630 10630 10629 10627 10626 10624 10622 10620 10616 10612 10608 10603 10597 10592 10588 10585 10582 10579 10577 10576 10575 10575 10574 10575 10576 10577 10579 10581 10583 10586 10590 10594 10598 10603 10607 10611 10617 10623 10629 10636 10643 10650 10657 10665 10671 10678 10682 10687 10692 10697 10706 10715 10721 10729 10736 10741 10748 10755 10764 10770 10764 10761 10774 10786 10788 10792 10797 10804 10815 10826 10838 10852 10861 10867 10872 10874 10875 10878 10885 10891 10894 10896 10901 10910 10917 10921 10924 10927
10630 10629 10628 10626 10625 10623 10622 10619 10616 10612 10608 10603 10598 10593 10588 10585 10582 10579 10577 10576 10575 10574 10574 10574 10575 10576 10577 10579 10581 10585 10587 10591 10594 10598 10602 10607 10612 10618 10623 10629 10636 10644 10652 10660 10664 10668 10671 10674 10681 10690 10702 10711 10717 10724 10730 10734 10740 10747 10752 10750 10740 10743 10763 10779 10785 10789 10790 10795 10808 10821 10833 10845 10854 10862 10865 10865 10868 10872 10878 10885 10888 10889 10894 10902 10909 10913 10916 10919
10629 10628 10626 10625 10624 10623 10621 10619 10616 10612 10608 10604 10599 10594 10590 10585 10582 10580 10578 10576 10575 10574 10573 10574 10575 10575 10575 10577 10579 10582 10585 10588 10590 10593 10597 10602 10607 10614 10618 10623 10629 10636 10642 10648 10652 10657 10660 10664 10675 10688 10697 10706 10713 10720 10726 10731 10735 10737 10736 10733 10731 10742 10764 10778 10780 10778 10779 10788 10801 10815 10827 10835 10844 10852 10854 10853 10858 10864 10870 10876 10879 10882 10887 10893 10899 10904 10908 10912
10628 10627 10625 10625 10623 10622 10620 10618 10615 10612 10608 10604 10600 10596 10591 10587 10583 10581 10579 10577 10575 10574 10573 10573 10573 10574 10574 10575 10578 10581 10583 10585 10587 10589 10594 10598 10602 10607 10611 10615 10622 10628 10634 10639 10643 10649 10653 10659 10671 10683 10688 10696 10704 10708 10713 10719 10722 10723 10726 10728 10734 10747 10762 10770 10767 10763 10769 10783 10796 10808 10818 10824 10832 10840 10841 10843 10850 10856 10860 10864 10869 10874 10879 10884 10890 10896 10901 10906
10627 10626 10625 10624 10623 10621 10619 10617 10614 10611 10608 10605 10601 10597 10593 10589 10585 10582 10580 10578 10576 10575 10574 10573 10573 10573 10574 10575 10577 10580 10582 10583 10585 10588 10592 10595 10599 10603 10606 10610 10616 10622 10626 10630 10634 10640 10647 10654 10666 10675 10680 10686 10693 10696 10699 10704 10708 10712 10715 10719 10727 10741 10752 10758 10756 10753 10761 10777 10789 10798 10805 10812 10820 10827 10831 10836 10841 10844 10848 10853 10858 10864 10870 10876 10880 10886 10892 10898